Date String (YYYY-MM-DD hh:mm:ss) UTC,Instrument flags,absolute air pressure of the measurement (hPa),sample flow rate (lpm),inlet stack bypass flow (lpm),air temperature of the measurement (°C),ambient temperature measured by the external sensor (°C),aerosol sample conditioner tube jacket temperature (°C),OPC LED temperature (°C),internal box temperature (°C),relative humidity of the measurement (%),span deviation,mass concentration of particles derived from Lorenz-Mie calculation of OPC scattering (μg/m³),mass concentration of particles derived from Lorenz-Mie calculation of OPC scattering (μg/m³),mass concentration of particles derived from Lorenz-Mie calculation of OPC scattering (μg/m³)
DateTimeUTC,F1_M11,P_M11,Q1_M11,Q2_M11,T1_M11,T2_M11,T3_M11,T4_M11,T5_M11,U1_M11,ZSPAN_M11,X2_M11,X0_M11,X1_M11
2023-09-28 03:00:00,SystemResetWarning,0828.1,5.00,000.00,028.0,025.4,000.0,036.5,029.7,15.7,0000.0,0006.24,0019.47,0005.13
2023-09-28 03:01:00,SystemResetWarning,0828.1,5.00,000.00,028.0,025.7,000.0,036.5,029.7,15.6,0000.0,0006.22,0019.36,0005.13
2023-09-28 03:02:00,SystemResetWarning,0828.1,5.00,000.00,028.0,026.0,000.0,036.5,029.8,15.6,0000.0,0006.27,0020.78,0005.12
2023-09-28 03:03:00,SystemResetWarning,0828.2,5.00,000.00,028.1,026.3,000.0,036.6,029.9,15.5,0000.0,0006.29,0020.37,0005.13
2023-09-28 03:04:00,SystemResetWarning,0828.2,5.00,000.00,028.1,026.5,000.0,036.6,029.9,15.5,0000.0,0006.31,0019.46,0005.12
2023-09-28 03:05:00,SystemResetWarning,0828.2,4.99,000.00,028.1,026.7,000.0,036.6,030.0,15.6,0000.0,0006.33,0019.02,0005.12
2023-09-28 03:06:00,SystemResetWarning,0828.2,5.00,000.00,028.2,026.9,000.0,036.6,030.1,15.5,0000.0,0006.39,0019.35,0005.13
2023-09-28 03:07:00,SystemResetWarning,0828.2,5.00,000.00,028.2,027.1,000.0,036.6,030.1,15.4,0000.0,0006.43,0019.40,0005.14
2023-09-28 03:08:00,SystemResetWarning,0828.2,5.00,000.00,028.3,027.2,000.0,036.7,030.2,15.3,0000.0,0006.46,0018.86,0005.16
2023-09-28 03:09:00,SystemResetWarning,0828.1,4.99,000.00,028.3,026.9,000.0,036.7,030.2,15.2,0000.0,0006.51,0019.03,0005.18
2023-09-28 03:10:00,SystemResetWarning,0828.2,4.99,000.00,028.3,025.1,000.0,036.6,030.0,15.4,0000.0,0006.48,0018.46,0005.18
2023-09-28 03:11:00,SystemResetWarning,0828.2,5.01,000.00,028.2,024.5,000.0,036.5,029.9,15.4,0000.0,0006.48,0018.07,0005.20
2023-09-28 03:12:00,SystemResetWarning,0828.2,5.00,000.00,028.1,024.7,000.0,036.5,029.7,15.5,0000.0,0006.48,0017.74,0005.20
2023-09-28 03:13:00,SystemResetWarning,0828.1,4.99,000.00,028.1,025.0,000.0,036.6,029.7,15.6,0000.0,0006.49,0017.31,0005.21
2023-09-28 03:14:00,SystemResetWarning,0828.2,5.00,000.00,028.0,025.4,000.0,036.6,029.7,15.6,0000.0,0006.56,0017.81,0005.24
2023-09-28 03:15:00,SystemResetWarning,0828.2,5.01,000.00,028.1,025.8,000.0,036.6,029.8,15.6,0000.2,0006.57,0017.74,0005.25
2023-09-28 03:16:00,SystemResetWarning,0828.2,5.00,000.00,028.1,026.1,000.0,036.6,029.9,15.6,0001.6,0006.56,0018.31,0005.25
2023-09-28 03:17:00,SystemResetWarning,0828.2,5.00,000.00,028.1,026.3,000.0,036.6,029.9,15.6,0001.1,0006.54,0017.30,0005.25
2023-09-28 03:18:00,SystemResetWarning,0828.2,5.00,000.00,028.1,026.6,000.0,036.6,029.9,15.5,0000.0,0006.59,0016.88,0005.25
2023-09-28 03:19:00,SystemResetWarning,0828.2,4.99,000.00,028.2,026.8,000.0,036.6,030.0,15.6,0000.0,0006.62,0017.01,0005.25
2023-09-28 03:20:00,SystemResetWarning,0828.2,4.99,000.00,028.2,026.9,000.0,036.6,030.1,15.6,0000.0,0006.59,0016.97,0005.24
2023-09-28 03:21:00,SystemResetWarning,0828.3,4.99,000.00,028.2,027.1,000.0,036.6,030.1,15.5,0000.0,0006.55,0016.80,0005.23
2023-09-28 03:22:00,SystemResetWarning,0828.3,5.00,000.00,028.3,027.2,000.0,036.7,030.2,15.5,0000.0,0006.52,0016.92,0005.21
2023-09-28 03:23:00,SystemResetWarning,0828.3,4.99,000.00,028.3,027.2,000.0,036.7,030.2,15.5,0000.0,0006.52,0016.35,0005.21
2023-09-28 03:24:00,SystemResetWarning,0828.3,5.00,000.00,028.3,025.9,000.0,036.7,030.1,15.5,0000.0,0006.45,0015.76,0005.18
2023-09-28 03:25:00,SystemResetWarning,0828.3,5.00,000.00,028.3,024.7,000.0,036.6,029.9,15.5,0000.0,0006.39,0016.01,0005.16
2023-09-28 03:26:00,SystemResetWarning,0828.3,5.00,000.00,028.2,024.6,000.0,036.6,029.8,15.5,0000.0,0006.36,0016.12,0005.15
2023-09-28 03:27:00,SystemResetWarning,0828.3,5.01,000.00,028.1,024.9,000.0,036.6,029.7,15.6,0000.0,0006.35,0016.20,0005.13
2023-09-28 03:28:00,SystemResetWarning,0828.3,5.01,000.00,028.1,025.2,000.0,036.6,029.7,15.7,0000.0,0006.31,0016.37,0005.12
2023-09-28 03:29:00,SystemResetWarning,0828.3,5.00,000.00,028.1,025.6,000.0,036.6,029.7,15.7,0000.0,0006.22,0016.92,0005.09
2023-09-28 03:30:00,SystemResetWarning,0828.4,5.00,000.00,028.1,025.9,000.0,036.6,029.8,15.7,0002.2,0006.17,0016.92,0005.08
2023-09-28 03:31:00,SystemResetWarning,0828.3,5.00,000.00,028.1,026.2,000.0,036.6,029.9,15.7,0002.6,0006.19,0017.81,0005.07
2023-09-28 03:32:00,SystemResetWarning,0828.3,5.00,000.00,028.1,026.5,000.0,036.6,029.9,15.7,0001.0,0006.19,0018.23,0005.05
2023-09-28 03:33:00,SystemResetWarning,0828.3,5.00,000.00,028.1,026.7,000.0,036.6,030.0,15.8,0000.0,0006.16,0017.13,0005.05
2023-09-28 03:34:00,SystemResetWarning,0828.3,5.00,000.00,028.2,026.8,000.0,036.6,030.0,15.6,0000.0,0006.17,0017.09,0005.06
2023-09-28 03:35:00,SystemResetWarning,0828.3,5.00,000.00,028.2,027.0,000.0,036.7,030.1,15.6,0000.0,0006.22,0017.29,0005.08
2023-09-28 03:36:00,SystemResetWarning,0828.4,5.00,000.00,028.3,027.1,000.0,036.7,030.1,15.5,0000.0,0006.19,0017.85,0005.09
2023-09-28 03:37:00,SystemResetWarning,0828.3,5.00,000.00,028.3,027.2,000.0,036.7,030.2,15.5,0000.0,0006.19,0017.43,0005.09
2023-09-28 03:38:00,SystemResetWarning,0828.3,5.01,000.00,028.3,027.3,000.0,036.7,030.2,15.5,0000.0,0006.18,0017.33,0005.11
2023-09-28 03:39:00,SystemResetWarning,0828.4,4.99,000.00,028.4,026.8,000.0,036.7,030.2,15.4,0000.0,0006.21,0018.13,0005.11
2023-09-28 03:40:00,SystemResetWarning,0828.4,5.00,000.00,028.3,025.0,000.0,036.7,030.0,15.5,0000.0,0006.24,0017.41,0005.12
2023-09-28 03:41:00,SystemResetWarning,0828.3,5.01,000.00,028.3,024.5,000.0,036.6,029.9,15.6,0000.0,0006.24,0017.00,0005.11
2023-09-28 03:42:00,SystemResetWarning,0828.3,5.01,000.00,028.2,024.7,000.0,036.6,029.7,15.6,0000.0,0006.22,0016.36,0005.10
2023-09-28 03:43:00,SystemResetWarning,0828.3,4.99,000.00,028.1,025.0,000.0,036.6,029.7,15.7,0000.0,0006.23,0016.15,0005.11
2023-09-28 03:44:00,SystemResetWarning,0828.3,5.01,000.00,028.1,025.4,000.0,036.6,029.8,15.8,0000.0,0006.29,0016.96,0005.11
2023-09-28 03:45:00,SystemResetWarning,0828.3,5.00,000.00,028.1,025.8,000.0,036.6,029.8,15.7,0000.0,0006.30,0017.86,0005.10
2023-09-28 03:46:00,SystemResetWarning,0828.4,5.00,000.00,028.1,026.1,000.0,036.6,029.9,15.7,0000.0,0006.30,0017.87,0005.08
2023-09-28 03:47:00,SystemResetWarning,0828.4,5.00,000.00,028.1,026.3,000.0,036.6,029.9,15.7,0000.0,0006.27,0016.37,0005.08
2023-09-28 03:48:00,SystemResetWarning,0828.4,5.00,000.00,028.2,026.5,000.0,036.6,030.0,15.7,0000.0,0006.28,0016.29,0005.08
2023-09-28 03:49:00,SystemResetWarning,0828.4,5.00,000.00,028.2,026.7,000.0,036.7,030.0,15.7,0000.0,0006.30,0016.48,0005.07
2023-09-28 03:50:00,SystemResetWarning,0828.4,5.01,000.00,028.2,026.9,000.0,036.7,030.1,15.7,0000.0,0006.24,0014.78,0005.08
2023-09-28 03:51:00,SystemResetWarning,0828.4,5.00,000.00,028.3,027.0,000.0,036.7,030.1,15.6,0000.0,0006.21,0014.72,0005.08
2023-09-28 03:52:00,SystemResetWarning,0828.4,5.00,000.00,028.3,027.1,000.0,036.7,030.2,15.6,0000.0,0006.19,0014.77,0005.09
2023-09-28 03:53:00,SystemResetWarning,0828.4,5.00,000.00,028.3,027.3,000.0,036.7,030.2,15.6,0000.0,0006.21,0015.20,0005.10
2023-09-28 03:54:00,SystemResetWarning,0828.4,4.99,000.00,028.4,027.2,000.0,036.7,030.2,15.5,0000.0,0006.26,0015.14,0005.11
2023-09-28 03:55:00,SystemResetWarning,0828.4,4.98,000.00,028.4,025.8,000.0,036.7,030.1,15.5,0000.0,0006.25,0014.93,0005.12
2023-09-28 03:56:00,SystemResetWarning,0828.4,5.01,000.00,028.3,024.6,000.0,036.6,029.9,15.5,0000.0,0006.21,0014.66,0005.11
2023-09-28 03:57:00,SystemResetWarning,0828.4,5.01,000.00,028.2,024.6,000.0,036.6,029.8,15.6,0000.0,0006.19,0014.47,0005.11
2023-09-28 03:58:00,SystemResetWarning,0828.4,5.00,000.00,028.1,024.8,000.0,036.6,029.7,15.7,0000.0,0006.21,0014.24,0005.10
2023-09-28 03:59:00,SystemResetWarning,0828.4,5.00,000.00,028.1,025.2,000.0,036.6,029.7,15.7,0000.0,0006.24,0014.51,0005.10
